1506916800.31,33919,14.31,74230.5,-1.95,-39.85,-40.03,0,*5C
1506916801.54,33920,14.31,74234.0,-1.95,-40.03,-40.35,0,*53
1506916802.8,33921,14.31,74234.5,-1.95,-39.79,-40.03,0,*54
1506916804.06,33922,14.31,74230.8,-1.95,-39.79,-40.15,0,*50
1506916805.3,33923,14.31,74232.8,-1.95,-39.85,-40.15,0,*52
1506916806.54,33924,14.31,74234.5,-1.95,-39.85,-40.35,0,*57
1506916807.78,33925,14.31,74236.3,-1.97,-39.97,-40.21,0,*52
1506916809.02,33926,14.31,74238.5,-1.97,-39.85,-40.21,0,*52
1506916810.3,33927,14.31,74234.5,-1.95,-39.97,-40.21,0,*52
1506916811.5,33928,14.31,74236.3,-1.97,-39.65,-39.85,0,*52
1506916812.73,33929,14.31,74240.8,-1.95,-40.03,-40.15,0,*58
1506916813.99,33930,14.31,74238.5,-1.95,-40.41,-40.53,0,*54
1506916815.22,33931,14.31,74238.8,-1.97,-40.35,-40.59,0,*5E
1506916816.45,33932,14.31,74236.8,-1.95,-40.35,-40.53,0,*55
1506916817.65,33933,14.31,74236.3,-1.97,-40.53,-40.73,0,*54
1506916818.9,33934,14.31,74238.5,-1.97,-40.41,-40.59,0,*58
1506916820.15,33935,14.31,74242.0,-1.97,-40.21,-40.41,0,*56
1506916821.38,33936,14.31,74248.5,-1.97,-40.59,-40.73,0,*5B
1506916822.57,33937,14.31,74246.3,-1.97,-40.53,-40.73,0,*50
1506916823.82,33938,14.31,74246.0,-1.97,-40.21,-40.41,0,*5B
1506916825.09,33939,14.31,74248.5,-1.99,-39.91,-40.21,0,*57
1506916826.29,33940,14.31,74248.0,-1.97,-39.85,-40.15,0,*55
1506916827.49,33941,14.31,74248.8,-1.97,-40.03,-40.35,0,*56
1506916828.77,33942,14.31,74250.3,-1.99,-40.29,-40.59,0,*59
1506916830.0,33943,14.31,74250.3,-1.99,-40.65,-40.91,0,*54
1506916831.26,33944,14.31,74250.0,-1.99,-40.41,-40.47,0,*5E
1506916832.55,33945,14.31,74248.5,-1.99,-40.59,-40.85,0,*58
1506916833.75,33946,14.31,74246.3,-2.01,-40.65,-40.91,0,*53
1506916835.01,33947,14.31,74246.3,-1.99,-40.79,-41.03,0,*57
1506916836.27,33948,14.31,74244.3,-2.01,-40.59,-40.85,0,*57
1506916837.47,33949,14.31,74246.3,-2.01,-40.47,-40.65,0,*57
1506916838.67,33950,14.31,74248.5,-2.05,-40.35,-40.73,0,*59
1506916839.88,33951,14.31,74242.5,-2.05,-40.35,-40.53,0,*5A
1506916841.15,33952,14.31,74244.5,-2.01,-40.09,-40.41,0,*51
1506916842.41,33953,14.31,74246.3,-2.01,-40.09,-40.41,0,*50
1506916843.64,33954,14.31,74248.5,-2.01,-40.03,-40.21,0,*5B
1506916844.87,33955,14.31,74248.8,-2.01,-39.85,-40.09,0,*50
1506916846.13,33956,14.31,74246.8,-2.01,-39.71,-40.09,0,*58
1506916847.4,33957,14.31,74248.8,-2.01,-39.71,-40.21,0,*53
1506916848.63,33958,14.31,74252.0,-2.01,-39.91,-40.29,0,*5A
1506916849.86,33959,14.31,74252.0,-2.01,-39.91,-40.21,0,*53
1506916851.07,33960,14.31,74252.5,-2.01,-39.65,-40.03,0,*52
1506916852.3,33961,14.31,74258.5,-2.01,-39.85,-40.21,0,*5D
1506916853.57,33962,14.31,74254.5,-2.01,-40.09,-40.41,0,*52
1506916854.79,33963,14.31,74254.3,-2.01,-40.29,-40.47,0,*57
1506916856.01,33964,14.31,74252.3,-2.01,-40.29,-40.47,0,*50
1506916857.27,33965,14.31,74254.5,-2.01,-40.41,-40.59,0,*50
1506916858.53,33966,14.31,74254.0,-1.99,-40.65,-40.85,0,*56
1506916859.76,33967,14.31,74256.0,-2.05,-40.73,-40.97,0,*55
1506916861.0,33968,14.31,74258.8,-2.05,-40.73,-40.97,0,*5A
1506916862.29,33969,14.31,74258.8,-2.07,-40.85,-40.97,0,*50
1506916863.53,33970,14.31,74262.0,-2.07,-40.73,-40.91,0,*57
1506916864.8,33971,14.31,74256.8,-2.05,-40.85,-40.97,0,*5B
1506916866.04,33972,14.31,74258.0,-2.05,-40.73,-40.97,0,*51
1506916867.27,33973,14.31,74256.5,-2.05,-40.85,-41.17,0,*50
1506916868.51,33974,14.31,74258.0,-2.07,-40.91,-41.17,0,*50
1506916869.77,33975,14.31,74256.8,-2.09,-40.97,-41.35,0,*59
1506916870.98,33976,14.31,74258.3,-2.09,-40.91,-41.17,0,*5C
1506916872.26,33977,14.31,74254.8,-2.11,-40.97,-41.23,0,*55
1506916873.49,33978,14.31,74252.3,-2.09,-40.79,-41.03,0,*51
1506916874.75,33979,14.31,74248.3,-2.11,-40.73,-40.97,0,*5F
1506916876.0,33980,14.31,74254.3,-2.09,-40.59,-40.79,0,*58
1506916877.25,33981,14.31,74252.0,-2.09,-40.59,-40.79,0,*59
1506916878.51,33982,14.31,74248.5,-2.11,-40.35,-40.59,0,*5B
1506916879.77,33983,14.31,74248.3,-2.11,-40.35,-40.59,0,*5A
1506916881.0,33984,14.31,74250.3,-2.09,-40.21,-40.53,0,*5B
1506916882.23,33985,14.31,74246.5,-2.11,-40.35,-40.53,0,*56
1506916883.5,33986,14.31,74244.3,-2.11,-40.15,-40.41,0,*54
1506916884.75,33987,14.31,74240.5,-2.11,-40.03,-40.21,0,*54
1506916885.98,33988,14.31,74238.3,-2.11,-40.03,-40.35,0,*5E
1506916887.26,33989,14.31,74246.8,-2.11,-40.21,-40.41,0,*5C
1506916888.49,33990,14.31,74242.3,-2.11,-40.35,-40.73,0,*50
1506916889.7,33991,14.31,74242.8,-2.09,-39.85,-40.03,0,*5A
1506916890.99,33992,14.31,74244.3,-2.11,-39.79,-39.97,0,*50
1506916892.22,33993,14.31,74242.5,-2.09,-39.85,-40.21,0,*58
1506916893.43,33994,14.31,74244.8,-2.09,-39.85,-40.35,0,*5A
1506916894.63,33995,14.31,74244.5,-2.09,-40.35,-40.53,0,*5E
1506916895.87,33996,14.31,74246.5,-2.09,-40.41,-40.53,0,*5E
1506916897.13,33997,14.31,74250.8,-2.09,-40.41,-40.59,0,*55
1506916898.39,33998,14.31,74244.8,-2.11,-40.59,-40.91,0,*5E
1506916899.65,33999,14.31,74246.8,-2.11,-40.59,-40.91,0,*5F
1506916900.89,34000,14.31,74248.8,-2.11,-39.85,-40.15,0,*52
1506916902.16,34001,14.31,74248.0,-2.11,-40.15,-40.41,0,*55
1506916903.45,34002,14.31,74246.3,-2.11,-40.41,-40.59,0,*5E
1506916904.71,34003,14.31,74244.3,-2.11,-40.59,-40.91,0,*52
1506916906.0,34004,14.31,74244.3,-2.11,-40.41,-40.59,0,*58
1506916907.28,34005,14.31,74240.3,-2.11,-40.21,-40.41,0,*56
1506916908.51,34006,14.31,74248.0,-2.11,-40.03,-40.35,0,*56
1506916909.74,34007,14.31,74244.8,-2.11,-40.03,-40.53,0,*57
1506916911.0,34008,14.31,74244.0,-2.11,-40.35,-40.59,0,*57
1506916912.28,34009,14.31,74238.8,-2.11,-40.21,-40.59,0,*53
1506916913.51,34010,14.31,74238.3,-2.11,-40.03,-40.35,0,*51
1506916914.76,34011,14.31,74238.8,-2.11,-40.21,-40.53,0,*50
1506916916.03,34012,14.31,74236.3,-2.11,-40.15,-40.41,0,*57
1506916917.29,34013,14.31,74238.8,-2.11,-39.85,-40.21,0,*57
1506916918.55,34014,14.31,74234.0,-2.11,-39.71,-39.85,0,*5B
1506916919.81,34015,14.31,74232.3,-2.11,-39.85,-39.97,0,*52
1506916921.06,34016,14.31,74234.0,-2.09,-39.97,-40.21,0,*58
1506916922.31,34017,14.31,74236.8,-2.11,-39.97,-40.35,0,*55
1506916923.59,34018,14.31,74234.3,-2.11,-39.97,-40.21,0,*5F
1506916924.85,34019,14.31,74232.8,-2.11,-40.03,-40.21,0,*5D
1506916926.13,34020,14.31,74238.5,-2.11,-39.97,-40.21,0,*54
1506916927.35,34021,14.31,74238.8,-2.09,-39.97,-40.03,0,*5C
1506916928.61,34022,14.31,74242.0,-2.09,-39.71,-39.97,0,*54
1506916929.85,34023,14.31,74242.5,-2.09,-39.85,-40.21,0,*5D
1506916931.05,34024,14.31,74238.5,-2.09,-40.03,-40.35,0,*5F
1506916932.29,34025,14.31,74240.8,-2.09,-40.15,-40.41,0,*5A
1506916933.52,34026,14.31,74240.5,-2.09,-39.97,-40.35,0,*5E
1506916934.77,34027,14.31,74242.3,-2.11,-40.03,-40.21,0,*50
1506916935.97,34028,14.31,74240.0,-2.09,-40.03,-40.35,0,*53
1506916937.23,34029,14.31,74242.5,-2.09,-40.21,-40.41,0,*51
1506916938.48,34030,14.31,74242.5,-2.09,-39.97,-40.21,0,*5C
1506916939.68,34031,14.31,74242.3,-2.09,-40.03,-40.35,0,*5B
1506916940.91,34032,14.31,74242.8,-2.09,-40.03,-40.21,0,*5D
1506916942.12,34033,14.31,74240.8,-2.09,-39.85,-40.15,0,*5B
1506916943.4,34034,14.31,74242.8,-2.11,-39.97,-40.21,0,*51
1506916944.65,34035,14.31,74244.5,-2.11,-40.21,-40.53,0,*56
1506916945.91,34036,14.31,74244.5,-2.09,-40.41,-40.59,0,*50
1506916947.17,34037,14.31,74246.3,-2.09,-39.97,-40.21,0,*5B
1506916948.4,34038,14.31,74246.3,-2.09,-39.85,-40.21,0,*57
1506916949.65,34039,14.31,74246.8,-2.09,-39.97,-40.21,0,*55
1506916950.9,34040,14.31,74244.5,-2.11,-40.15,-40.53,0,*53
1506916952.15,34041,14.31,74248.8,-2.09,-40.21,-40.41,0,*5F
1506916953.38,34042,14.31,74248.0,-2.09,-40.35,-40.59,0,*50
1506916954.59,34043,14.31,74248.8,-2.09,-40.03,-40.53,0,*5E
1506916955.81,34044,14.31,74250.0,-2.09,-39.97,-40.35,0,*5A
1506916957.05,34045,14.31,74248.3,-2.09,-40.03,-40.41,0,*5B
1506916958.3,34046,14.31,74248.5,-2.09,-40.21,-40.41,0,*58
1506916959.51,34047,14.31,74244.0,-2.09,-40.15,-40.53,0,*5D
1506916960.77,34048,14.31,74244.3,-2.09,-40.21,-40.59,0,*5F
1506916962.02,34049,14.31,74250.3,-2.09,-40.21,-40.41,0,*57
1506916963.23,34050,14.31,74246.8,-2.09,-40.15,-40.53,0,*5B
1506916964.47,34051,14.31,74248.5,-2.09,-39.85,-40.21,0,*58
1506916965.7,34052,14.31,74246.8,-2.11,-39.85,-40.15,0,*55
1506916966.93,34053,14.31,74248.3,-2.09,-40.03,-40.21,0,*5A
1506916968.18,34054,14.31,74250.3,-2.09,-40.15,-40.41,0,*5C
1506916969.42,34055,14.31,74252.0,-2.09,-40.15,-40.41,0,*5D
1506916970.62,34056,14.31,74250.3,-2.09,-40.03,-40.35,0,*5A
1506916971.82,34057,14.31,74250.5,-2.09,-40.03,-40.35,0,*5B
1506916973.04,34058,14.31,74244.8,-2.09,-40.15,-40.53,0,*53
1506916974.29,34059,14.31,74246.3,-2.11,-40.21,-40.53,0,*5C
1506916975.49,34060,14.31,74250.5,-2.09,-40.35,-40.73,0,*58
1506916976.75,34061,14.31,74250.3,-2.11,-40.03,-40.41,0,*54
1506916978.0,34062,14.31,74252.0,-2.11,-40.15,-40.53,0,*53
1506916979.23,34063,14.31,74252.5,-2.09,-40.41,-40.73,0,*58
1506916980.46,34064,14.31,74256.5,-2.11,-40.35,-40.73,0,*55
1506916981.72,34065,14.31,74256.3,-2.11,-40.59,-40.91,0,*52
1506916982.92,34066,14.31,74260.3,-2.09,-40.53,-40.73,0,*5E
1506916984.18,34067,14.31,74258.0,-2.11,-40.41,-40.73,0,*55
1506916985.44,34068,14.31,74260.5,-2.11,-40.41,-40.73,0,*5A
1506916986.72,34069,14.31,74260.5,-2.13,-40.79,-40.85,0,*5B
1506916987.97,34070,14.31,74260.8,-2.13,-40.59,-40.65,0,*5F
1506916989.22,34071,14.31,74258.3,-2.13,-40.47,-40.79,0,*5C
1506916990.48,34072,14.31,74258.0,-2.13,-40.47,-40.79,0,*5F
1506916991.73,34073,14.31,74258.0,-2.13,-40.41,-40.65,0,*55
1506916993.02,34074,14.31,74254.8,-2.13,-40.09,-40.41,0,*58
1506916994.28,34075,14.31,74248.5,-2.13,-39.91,-40.29,0,*58
1506916995.56,34076,14.31,74254.8,-2.13,-40.29,-40.59,0,*51
1506916996.79,34077,14.31,74252.5,-2.11,-40.03,-40.35,0,*50
1506916998.05,34078,14.31,74248.3,-2.13,-39.91,-40.29,0,*55
1506916999.3,34079,14.31,74250.8,-2.13,-40.21,-40.47,0,*59
1506917000.54,34080,14.31,74250.5,-2.13,-40.21,-40.47,0,*5F
1506917001.83,34081,14.31,74252.5,-2.13,-40.09,-40.41,0,*52
1506917003.12,34082,14.31,74250.0,-2.13,-40.09,-40.41,0,*51
1506917004.35,34083,14.31,74244.3,-2.13,-39.65,-40.03,0,*52
1506917005.61,34084,14.31,74240.3,-2.13,-39.85,-40.21,0,*5B
1506917006.9,34085,14.31,74242.5,-2.11,-39.79,-39.97,0,*58
1506917008.14,34086,14.31,74236.5,-2.11,-39.85,-40.15,0,*5C
1506917009.37,34087,14.31,74240.3,-2.11,-40.03,-40.35,0,*5F
1506917010.63,34088,14.31,74236.8,-2.11,-39.79,-40.03,0,*56
1506917011.89,34089,14.31,74238.3,-2.09,-39.79,-39.97,0,*5D
1506917013.13,34090,14.31,74234.5,-2.09,-39.79,-40.03,0,*56
1506917014.34,34091,14.31,74238.8,-2.09,-39.85,-40.03,0,*54
1506917015.6,34092,14.31,74238.0,-2.11,-39.79,-39.85,0,*5D
1506917016.89,34093,14.31,74238.5,-2.11,-39.71,-39.97,0,*57
1506917018.15,34094,14.31,74230.8,-2.11,-39.85,-40.21,0,*58
1506917019.44,34095,14.31,74234.8,-2.11,-39.59,-39.71,0,*53
1506917020.72,34096,14.31,74238.8,-2.11,-39.71,-39.97,0,*52
1506917021.99,34097,14.31,74236.8,-2.11,-39.79,-40.15,0,*5F
1506917023.25,34098,14.31,74238.5,-2.09,-39.79,-39.97,0,*5D
1506917024.49,34099,14.31,74236.8,-2.09,-39.79,-40.03,0,*5F
1506917025.74,34100,14.31,74238.5,-2.09,-39.97,-40.21,0,*5E
1506917026.95,34101,14.31,74240.0,-2.09,-39.85,-40.15,0,*5B
1506917028.16,34102,14.31,74238.3,-2.09,-39.85,-40.03,0,*5F
1506917029.4,34103,14.31,74240.5,-2.07,-39.91,-40.15,0,*52
1506917030.67,34104,14.31,74240.5,-2.07,-39.91,-40.29,0,*5A
1506917031.88,34105,14.31,74242.5,-2.09,-40.15,-40.53,0,*5A
1506917033.11,34106,14.31,74240.8,-2.09,-40.21,-40.53,0,*5E
1506917034.34,34107,14.31,74242.8,-2.11,-39.85,-40.03,0,*53
1506917035.6,34108,14.31,74246.0,-2.09,-39.71,-39.97,0,*5D
1506917036.84,34109,14.31,74242.5,-2.09,-39.79,-40.15,0,*50
1506917038.1,34110,14.31,74246.5,-2.09,-39.71,-39.97,0,*54
1506917039.37,34111,14.31,74246.3,-2.07,-39.91,-40.29,0,*5E
1506917040.6,34112,14.31,74246.0,-2.05,-40.09,-40.35,0,*5D
1506917041.84,34113,14.31,74244.3,-2.07,-39.91,-40.15,0,*53
1506917043.08,34114,14.31,74246.3,-2.07,-39.91,-40.15,0,*54
1506917044.38,34115,14.31,74248.5,-2.07,-39.79,-40.29,0,*5C
1506917045.64,34116,14.31,74250.8,-2.07,-39.91,-40.29,0,*59
1506917046.91,34117,14.31,74248.0,-2.07,-40.09,-40.47,0,*5F
1506917048.17,34118,14.31,74248.8,-2.07,-40.09,-40.35,0,*55
1506917049.43,34119,14.31,74248.0,-2.07,-40.09,-40.35,0,*54
1506917050.69,34120,14.31,74248.8,-2.07,-40.09,-40.35,0,*5E
1506917051.96,34121,14.31,74248.8,-2.07,-40.09,-40.35,0,*5F
1506917053.19,34122,14.31,74244.3,-2.09,-39.79,-40.03,0,*5E
1506917054.45,34123,14.31,74242.3,-2.09,-39.71,-39.97,0,*54
1506917055.74,34124,14.31,74236.8,-2.07,-39.71,-40.09,0,*54
1506917057.0,34125,14.31,74240.8,-2.07,-39.97,-40.35,0,*52
1506917058.3,34126,14.31,74240.0,-2.07,-39.79,-40.09,0,*5E
1506917059.58,34127,14.31,74238.0,-2.07,-39.97,-40.29,0,*5D
1506917060.85,34128,14.31,74240.0,-2.07,-39.79,-40.15,0,*5D
1506917062.09,34129,14.31,74238.5,-2.05,-39.71,-39.91,0,*54
1506917063.36,34130,14.31,74236.0,-2.07,-39.79,-39.91,0,*56
1506917064.65,34131,14.31,74242.5,-2.07,-39.71,-40.09,0,*50
1506917065.91,34132,14.31,74242.3,-2.05,-39.53,-39.79,0,*58
1506917067.15,34133,14.31,74238.0,-2.07,-39.35,-39.65,0,*56
1506917068.38,34134,14.31,74240.3,-2.05,-39.53,-39.65,0,*53
1506917069.63,34135,14.31,74240.0,-2.05,-39.53,-39.53,0,*57
1506917070.86,34136,14.31,74242.0,-2.01,-39.41,-39.47,0,*56
1506917072.09,34137,14.31,74240.8,-2.01,-39.71,-40.03,0,*5A
1506917073.34,34138,14.31,74246.0,-2.05,-39.97,-40.29,0,*51
1506917074.61,34139,14.31,74240.5,-2.05,-39.71,-39.97,0,*53
1506917075.87,34140,14.31,74242.0,-2.05,-39.79,-40.29,0,*5E
1506917077.11,34141,14.31,74240.5,-2.01,-39.91,-40.21,0,*55
1506917078.34,34142,14.31,74240.3,-2.05,-39.97,-40.35,0,*51
1506917079.57,34143,14.31,74236.5,-2.05,-39.97,-40.15,0,*52
1506917080.84,34144,14.31,74238.5,-2.05,-39.79,-40.09,0,*58
1506917082.05,34145,14.31,74240.3,-2.05,-39.65,-39.91,0,*5B
1506917083.31,34146,14.31,74236.5,-2.05,-39.53,-39.79,0,*5B
1506917084.58,34147,14.31,74242.5,-2.05,-39.79,-40.09,0,*5B
1506917085.82,34148,14.31,74236.3,-2.05,-39.71,-39.91,0,*53
1506917087.06,34149,14.31,74238.0,-2.01,-39.59,-39.85,0,*59
1506917088.29,34150,14.31,74240.3,-2.01,-39.59,-39.85,0,*51
1506917089.53,34151,14.31,74234.8,-2.01,-39.59,-40.03,0,*50
1506917090.79,34152,14.31,74232.8,-1.99,-39.59,-39.85,0,*51
1506917092.02,34153,14.31,74236.8,-2.01,-39.71,-39.85,0,*58
1506917093.23,34154,14.31,74234.8,-2.01,-39.65,-39.65,0,*54
1506917094.47,34155,14.31,74232.5,-2.01,-39.59,-39.85,0,*54
1506917095.73,34156,14.31,74228.3,-1.99,-39.91,-40.21,0,*51
1506917096.96,34157,14.31,74232.3,-2.01,-40.03,-40.29,0,*5F
1506917098.17,34158,14.31,74232.8,-2.01,-39.65,-39.91,0,*53
1506917099.4,34159,14.31,74234.5,-1.99,-39.65,-39.91,0,*50
1506917100.61,34160,14.31,74232.8,-2.01,-39.65,-39.85,0,*5D
1506917101.82,34161,14.31,74238.3,-2.01,-39.47,-39.65,0,*52
1506917103.08,34162,14.31,74238.3,-1.99,-39.47,-39.71,0,*56
1506917104.34,34163,14.31,74230.3,-1.99,-39.85,-40.09,0,*58
1506917105.64,34164,14.31,74236.8,-1.99,-39.59,-39.71,0,*5F
1506917106.87,34165,14.31,74238.3,-1.97,-39.59,-39.85,0,*5B
1506917108.13,34166,14.31,74238.8,-1.97,-39.59,-39.79,0,*5B
1506917109.39,34167,14.31,74234.8,-1.97,-39.79,-39.97,0,*58
1506917110.61,34168,14.31,74236.8,-1.97,-39.35,-39.53,0,*57
1506917111.87,34169,14.31,74232.0,-1.97,-39.53,-39.79,0,*5E
1506917113.09,34170,14.31,74236.5,-1.97,-39.53,-39.65,0,*5B
1506917114.33,34171,14.31,74232.3,-1.97,-39.59,-39.65,0,*50
1506917115.57,34172,14.31,74238.8,-1.95,-39.65,-40.15,0,*57
1506917116.82,34173,14.31,74236.5,-1.97,-39.97,-40.21,0,*5E
1506917118.07,34174,14.31,74236.8,-1.97,-39.97,-40.21,0,*59
1506917119.3,34175,14.31,74236.5,-1.95,-40.03,-40.35,0,*5C
1506917120.5,34176,14.31,74232.5,-1.97,-39.85,-40.15,0,*5F
1506917121.72,34177,14.31,74238.5,-1.97,-39.97,-40.03,0,*5A
1506917122.95,34178,14.31,74232.5,-1.95,-40.03,-40.35,0,*51
1506917124.17,34179,14.31,74234.0,-1.97,-39.97,-40.03,0,*54
1506917125.41,34180,14.31,74236.5,-1.97,-39.59,-39.85,0,*50
1506917126.64,34181,14.31,74232.5,-1.97,-39.59,-39.85,0,*51
1506917127.9,34182,14.31,74234.5,-1.97,-39.59,-39.97,0,*51
1506917129.1,34183,14.31,74238.3,-1.97,-39.65,-39.85,0,*5C
1506917130.34,34184,14.31,74234.3,-1.97,-39.59,-39.85,0,*54
1506917131.57,34185,14.31,74236.3,-1.97,-39.65,-39.97,0,*59
1506917132.8,34186,14.31,74236.0,-1.95,-39.65,-39.85,0,*5B
1506917134.06,34187,14.31,74238.5,-1.97,-39.59,-39.79,0,*54
1506917135.35,34188,14.31,74238.8,-1.95,-39.59,-39.79,0,*59
1506917136.6,34189,14.31,74236.5,-1.95,-39.97,-40.03,0,*59
1506917137.86,34190,14.31,74240.3,-1.95,-39.97,-40.35,0,*54
1506917139.12,34191,14.31,74244.8,-1.97,-39.79,-39.97,0,*51
1506917140.35,34192,14.31,74240.5,-1.95,-40.03,-40.35,0,*55
1506917141.6,34193,14.31,74244.0,-1.97,-39.97,-40.21,0,*50
1506917142.86,34194,14.31,74244.3,-1.97,-39.59,-39.97,0,*56
1506917144.12,34195,14.31,74240.0,-1.95,-39.85,-40.21,0,*57
1506917145.37,34196,14.31,74242.8,-1.95,-40.03,-40.21,0,*54
1506917146.61,34197,14.31,74240.8,-1.95,-40.15,-40.35,0,*57
1506917147.88,34198,14.31,74246.0,-1.95,-40.15,-40.41,0,*5B
1506917149.11,34199,14.31,74250.8,-1.95,-39.65,-39.85,0,*55
1506917150.37,34200,14.31,74246.5,-1.95,-39.65,-39.97,0,*55
1506917151.6,34201,14.31,74244.0,-1.95,-39.85,-40.03,0,*59
1506917152.81,34202,14.31,74242.8,-1.97,-39.85,-40.03,0,*58
1506917154.04,34203,14.31,74242.5,-1.95,-39.85,-40.15,0,*5C
1506917155.27,34204,14.31,74246.0,-1.95,-39.65,-40.03,0,*52
1506917156.48,34205,14.31,74240.8,-1.97,-39.85,-40.15,0,*58
1506917157.71,34206,14.31,74242.0,-1.97,-39.79,-40.03,0,*5F
1506917158.99,34207,14.31,74240.8,-1.95,-39.97,-40.21,0,*5C
1506917160.28,34208,14.31,74244.3,-1.95,-39.59,-39.97,0,*52
1506917161.52,34209,14.31,74250.5,-1.97,-39.79,-40.15,0,*57
1506917162.75,34210,14.31,74250.5,-1.95,-39.85,-40.03,0,*59
1506917164.0,34211,14.31,74242.0,-1.97,-39.97,-40.21,0,*59
1506917165.29,34212,14.31,74244.0,-1.95,-39.79,-39.97,0,*5B
1506917166.58,34213,14.31,74240.5,-1.95,-39.59,-39.79,0,*58
1506917167.82,34214,14.31,74240.3,-1.95,-39.85,-40.15,0,*5A
1506917169.1,34215,14.31,74242.5,-1.95,-39.97,-40.21,0,*5F
1506917170.35,34216,14.31,74246.3,-1.95,-40.21,-40.35,0,*5A
1506917171.6,34217,14.31,74244.0,-1.95,-40.21,-40.53,0,*5B
1506917172.87,34218,14.31,74240.0,-1.95,-40.15,-40.41,0,*50
1506917174.14,34219,14.31,74240.5,-1.95,-40.15,-40.41,0,*51
1506917175.41,34220,14.31,74244.8,-1.95,-40.15,-40.41,0,*5B
1506917176.61,34221,14.31,74240.5,-1.97,-40.35,-40.53,0,*59
1506917177.86,34222,14.31,74242.0,-1.97,-40.21,-40.41,0,*5C
1506917179.08,34223,14.31,74240.5,-1.97,-39.97,-40.15,0,*5F
1506917180.37,34224,14.31,74240.0,-1.95,-39.79,-39.97,0,*5E
1506917181.61,34225,14.31,74244.5,-1.95,-39.85,-40.15,0,*58
1506917182.86,34226,14.31,74240.3,-1.97,-40.21,-40.41,0,*58
1506917184.11,34227,14.31,74244.0,-1.95,-40.21,-40.53,0,*58
1506917185.33,34228,14.31,74242.5,-1.97,-39.97,-40.35,0,*56
1506917186.57,34229,14.31,74236.3,-1.97,-40.15,-40.21,0,*56
1506917187.85,34230,14.31,74242.3,-1.95,-39.97,-40.21,0,*58
1506917189.08,34231,14.31,74240.8,-1.97,-39.79,-40.03,0,*5B
1506917190.37,34232,14.31,74238.5,-1.95,-39.59,-39.97,0,*5B
1506917191.65,34233,14.31,74238.0,-1.95,-39.53,-39.79,0,*50
1506917192.94,34234,14.31,74240.0,-1.95,-39.79,-39.97,0,*5F
1506917194.2,34235,14.31,74236.5,-1.95,-39.65,-39.97,0,*53
1506917195.43,34236,14.31,74240.3,-1.95,-39.85,-40.03,0,*5D
1506917196.73,34237,14.31,74242.0,-1.95,-39.59,-39.79,0,*5E
1506917197.99,34238,14.31,74242.8,-1.95,-39.59,-39.85,0,*52
1506917199.25,34239,14.25,74238.3,-1.95,-39.65,-39.79,0,*5F
1506917200.48,34240,14.31,74238.5,-1.93,-39.53,-39.91,0,*54
1506917201.69,34241,14.31,74238.3,-1.93,-39.91,-40.15,0,*59
1506917202.92,34242,14.31,74242.5,-1.93,-40.09,-40.47,0,*52
1506917204.13,34243,14.31,74242.3,-1.93,-40.15,-40.35,0,*5B
1506917205.34,34244,14.31,74240.3,-1.93,-40.15,-40.35,0,*5C
1506917206.6,34245,14.31,74238.8,-1.93,-39.71,-39.97,0,*57
1506917207.83,34246,14.31,74236.5,-1.95,-39.85,-40.03,0,*5A
1506917209.09,34247,14.31,74240.0,-1.95,-39.65,-39.97,0,*56
1506917210.35,34248,14.31,74236.0,-1.95,-40.03,-40.41,0,*52
1506917211.61,34249,14.31,74238.5,-1.95,-40.21,-40.53,0,*50
1506917212.85,34250,14.31,74240.8,-1.95,-40.15,-40.53,0,*5F
1506917214.13,34251,14.31,74240.3,-1.95,-40.21,-40.41,0,*5A
1506917215.41,34252,14.31,74240.0,-1.95,-40.21,-40.41,0,*59
1506917216.67,34253,14.31,74236.5,-1.95,-40.15,-40.41,0,*5F
1506917217.93,34254,14.31,74240.3,-1.95,-40.35,-40.41,0,*5A
1506917219.19,34255,14.31,74240.8,-1.93,-39.53,-39.71,0,*5E
1506917220.42,34256,14.31,74240.0,-1.95,-39.85,-40.03,0,*5B
1506917221.7,34257,14.31,74240.0,-1.95,-40.21,-40.41,0,*5C
1506917222.97,34258,14.31,74242.0,-1.95,-40.15,-40.41,0,*54
1506917224.25,34259,14.31,74242.3,-1.95,-39.97,-40.21,0,*57
1506917225.5,34260,14.31,74240.5,-1.93,-40.09,-40.29,0,*5A
1506917226.73,34261,14.31,74240.0,-1.95,-40.03,-40.35,0,*5A
1506917227.98,34262,14.31,74236.8,-1.95,-39.97,-40.35,0,*5A
1506917229.19,34263,14.31,74238.5,-1.97,-40.15,-40.35,0,*5D
1506917230.46,34264,14.31,74238.5,-1.95,-40.15,-40.41,0,*5B
1506917231.7,34265,14.31,74238.5,-1.95,-39.85,-40.15,0,*5C
1506917232.95,34266,14.31,74236.3,-1.95,-39.97,-40.15,0,*5C
1506917234.22,34267,14.31,74232.8,-1.95,-39.79,-40.03,0,*5A
1506917235.43,34268,14.31,74234.3,-1.97,-40.21,-40.35,0,*51
1506917236.69,34269,14.31,74238.5,-1.95,-40.21,-40.53,0,*52
1506917237.95,34270,14.31,74234.0,-1.95,-40.03,-40.41,0,*59
1506917239.18,34271,14.31,74236.0,-1.95,-40.15,-40.35,0,*5C
1506917240.41,34272,14.31,74236.3,-1.95,-40.35,-40.53,0,*5D
1506917241.67,34273,14.31,74234.5,-1.95,-40.03,-40.41,0,*5A
1506917242.95,34274,14.31,74232.3,-1.95,-39.97,-40.21,0,*58
1506917244.23,34275,14.31,74234.0,-1.95,-40.21,-40.41,0,*5C
1506917245.48,34276,14.31,74236.3,-1.95,-40.21,-40.35,0,*5C
1506917246.71,34277,14.31,74238.8,-1.95,-39.65,-40.03,0,*56
1506917247.97,34278,14.31,74234.3,-1.95,-40.03,-40.21,0,*57
1506917249.26,34279,14.31,74234.0,-1.95,-39.79,-39.97,0,*56
1506917250.52,34280,14.31,74238.3,-1.95,-39.65,-39.97,0,*5D
1506917251.77,34281,14.31,74232.5,-1.95,-39.97,-40.15,0,*55
1506917253.01,34282,14.31,74234.8,-1.95,-39.85,-40.15,0,*55
1506917254.27,34283,14.31,74232.3,-1.95,-39.79,-40.03,0,*50
1506917255.51,34284,14.31,74238.5,-1.95,-40.15,-40.35,0,*56
1506917256.75,34285,14.31,74234.8,-1.93,-40.15,-40.29,0,*5C
1506917258.02,34286,14.31,74232.8,-1.91,-39.97,-40.29,0,*59
1506917259.25,34287,14.31,74238.8,-1.93,-39.97,-40.15,0,*55
1506917260.46,34288,14.25,74230.0,-1.93,-39.91,-40.15,0,*5C
1506917261.73,34289,14.31,74238.0,-1.95,-40.15,-40.21,0,*5E
1506917263.01,34290,14.31,74234.0,-1.95,-39.97,-40.21,0,*52
1506917264.26,34291,14.31,74234.8,-1.95,-40.03,-40.21,0,*50
1506917265.52,34292,14.31,74238.0,-1.93,-40.09,-40.29,0,*57
1506917266.78,34293,14.31,74234.5,-1.93,-40.09,-40.29,0,*56
1506917268.01,34294,14.31,74238.8,-1.93,-40.09,-40.35,0,*5C
1506917269.22,34295,14.31,74234.8,-1.93,-40.15,-40.35,0,*50
1506917270.45,34296,14.31,74238.0,-1.95,-40.03,-40.35,0,*52
1506917271.68,34297,14.31,74232.0,-1.95,-40.35,-40.53,0,*56
1506917272.93,34298,14.31,74238.0,-1.95,-40.53,-40.59,0,*53
1506917274.17,34299,14.31,74238.0,-1.93,-40.09,-40.35,0,*51
1506917275.4,34300,14.31,74234.3,-1.95,-40.03,-40.35,0,*5C
1506917276.63,34301,14.31,74242.0,-1.95,-40.15,-40.35,0,*5A
1506917277.89,34302,14.31,74238.3,-1.95,-40.21,-40.53,0,*5E
1506917279.17,34303,14.25,74238.0,-1.95,-40.41,-40.59,0,*53
1506917280.45,34304,14.31,74244.3,-1.95,-39.97,-40.21,0,*5E
1506917281.69,34305,14.31,74238.5,-1.95,-40.15,-40.35,0,*5E
1506917282.97,34306,14.31,74236.3,-1.95,-40.21,-40.41,0,*59
1506917284.23,34307,14.31,74240.5,-1.95,-40.35,-40.59,0,*54
1506917285.49,34308,14.31,74236.8,-1.95,-40.41,-40.53,0,*52
1506917286.78,34309,14.31,74234.5,-1.95,-40.41,-40.59,0,*59
1506917288.03,34310,14.31,74236.5,-1.97,-40.21,-40.41,0,*5C
1506917289.29,34311,14.31,74238.3,-1.95,-39.85,-40.21,0,*59
1506917290.52,34312,14.31,74232.0,-1.95,-40.35,-40.53,0,*5A
1506917291.77,34313,14.31,74236.0,-1.95,-40.03,-40.21,0,*5B
1506917293.05,34314,14.31,74236.5,-1.95,-39.97,-40.21,0,*5F
1506917294.26,34315,14.31,74238.0,-1.97,-40.15,-40.35,0,*5D
1506917295.47,34316,14.31,74240.0,-1.97,-40.15,-40.35,0,*5E
1506917296.7,34317,14.25,74236.8,-1.97,-39.79,-40.03,0,*5E
1506917297.96,34318,14.31,74238.5,-1.95,-39.97,-40.15,0,*54